Atlanta Fulton, GA

5:26 PM EDT on August 24, 2019 (GMT -0400)
Fulton County-Brown

Weather History for KFTY - July, 2019

Change the Weather History Date:

Sunday, July 21, 2019

  Actual Average Record
Temperature  
Mean Temperature 82 °F 80 °F  
Max Temperature 91 °F 90 °F 97 °F (2008)
Min Temperature 72 °F 71 °F 66 °F (2004)
Cooling Degree Days 17 15  
Month to date cooling degree days 374 309  
Year to date cooling degree days 1085 859  
Since 1 June cooling degree days 719 659  
Growing Degree Days 31 (Base 50)    
Moisture  
Dew Point 69 °F    
Average Humidity 69    
Maximum Humidity 93    
Minimum Humidity 44    
Precipitation  
Precipitation 0.00 in 0.15 in 1.84 in (2013)
Month to date precipitation 0.70 3.85  
Year to date precipitation 27.19 29.47  
Sea Level Pressure  
Sea Level Pressure 30.04 in    
Wind  
Wind Speed 5 mph (SW)    
Max Wind Speed 12 mph    
Max Gust Speed 17 mph    
Visibility 10 miles    
Events      
T = Trace of Precipitation, MM = Missing Value Source: NWS Daily Summary

Daily Weather History Graph

Daily Weather History Graph

Search for Another Location

Airport or City:

Astronomy

Jul. 21, 2019 Rise Set
Actual Time 6:42 AM EDT 8:46 PM EDT
Civil Twilight 6:14 AM EDT 9:14 PM EDT
Nautical Twilight 5:39 AM EDT 9:48 PM EDT
Astronomical Twilight 5:03 AM EDT 10:25 PM EDT
Moon 11:52 PM EDT (7/21) 10:51 AM EDT (7/21)
Length of Visible Light 15h 00m
Length of Day
14h 04m
Waning Gibbous, 80% of the Moon is Illuminated
Jul 21
Waning Gibbous
Jul 24
Last Quarter
Jul 31
New
Aug 7
First Quarter
Aug 15
Full

Hourly Weather History & Observations

Time (EDT) Temp. Heat Index Dew Point Humidity Pressure Visibility Wind Dir Wind Speed Gust Speed Precip Events Conditions
12:53 AM 73.0 °F - 71.1 °F 93% 30.04 in 10.0 mi Calm Calm - N/A   Clear
1:53 AM 73.0 °F - 70.0 °F 90% 30.01 in 10.0 mi Calm Calm - N/A   Clear
2:15 AM 72.0 °F - 70.0 °F 93% 30.04 in 10.0 mi WSW 3.5 mph - N/A   Scattered Clouds
2:25 AM 73.0 °F - 71.1 °F 93% 30.04 in 10.0 mi Calm Calm - N/A   Mostly Cloudy
2:53 AM 73.0 °F - 71.1 °F 93% 30.01 in 10.0 mi WSW 3.5 mph - N/A   Mostly Cloudy
3:06 AM 73.0 °F - 71.1 °F 93% 30.03 in 10.0 mi SW 4.6 mph - N/A   Mostly Cloudy
3:26 AM 73.0 °F - 71.1 °F 93% 30.04 in 10.0 mi SW 3.5 mph - N/A   Mostly Cloudy
3:53 AM 73.0 °F - 71.1 °F 93% 30.00 in 10.0 mi WSW 5.8 mph - N/A   Overcast
4:28 AM 73.0 °F - 70.0 °F 90% 30.04 in 10.0 mi WSW 3.5 mph - N/A   Overcast
4:53 AM 73.0 °F - 70.0 °F 90% 30.01 in 10.0 mi Calm Calm - N/A   Mostly Cloudy
5:02 AM 73.0 °F - 70.0 °F 90% 30.04 in 10.0 mi SW 3.5 mph - N/A   Scattered Clouds
5:10 AM 73.0 °F - 70.0 °F 90% 30.04 in 10.0 mi SSW 3.5 mph - N/A   Mostly Cloudy
5:53 AM 72.0 °F - 70.0 °F 93% 30.04 in 10.0 mi SSW 5.8 mph - N/A   Overcast
6:53 AM 73.0 °F - 70.0 °F 90% 30.06 in 10.0 mi SW 3.5 mph - N/A   Overcast
7:53 AM 73.0 °F - 70.0 °F 90% 30.06 in 10.0 mi WSW 3.5 mph - N/A   Overcast
8:53 AM 73.9 °F - 70.0 °F 87% 30.08 in 10.0 mi WSW 3.5 mph - N/A   Overcast
9:53 AM 73.9 °F - 70.0 °F 87% 30.08 in 10.0 mi SSW 6.9 mph - N/A   Overcast
10:17 AM 75.0 °F - 70.0 °F 84% 30.10 in 10.0 mi SSW 4.6 mph - N/A   Overcast
10:42 AM 79.0 °F - 71.1 °F 77% 30.10 in 10.0 mi Variable 5.8 mph - N/A   Mostly Cloudy
10:53 AM 79.0 °F - 69.1 °F 72% 30.09 in 10.0 mi Variable 5.8 mph - N/A   Mostly Cloudy
11:53 AM 82.0 °F 85.5 °F 69.1 °F 65% 30.08 in 10.0 mi WSW 4.6 mph - N/A   Overcast
12:53 PM 82.9 °F 85.8 °F 68.0 °F 60% 30.08 in 10.0 mi West 6.9 mph - N/A   Mostly Cloudy
1:00 PM 82.9 °F 85.8 °F 68.0 °F 60% 30.10 in 10.0 mi Variable 6.9 mph - N/A   Mostly Cloudy
1:53 PM 86.0 °F 89.4 °F 68.0 °F 55% 30.06 in 10.0 mi WSW 9.2 mph - N/A   Scattered Clouds
2:53 PM 87.1 °F 89.9 °F 66.9 °F 51% 30.03 in 10.0 mi SW 6.9 mph - N/A   Scattered Clouds
3:53 PM 88.0 °F 90.3 °F 66.0 °F 48% 30.01 in 10.0 mi Variable 6.9 mph - N/A   Partly Cloudy
4:53 PM 90.0 °F 92.8 °F 66.9 °F 46% 29.99 in 10.0 mi Variable 5.8 mph - N/A   Scattered Clouds
5:53 PM 89.1 °F 91.0 °F 64.9 °F 45% 29.98 in 10.0 mi SSE 8.1 mph - N/A   Scattered Clouds
6:53 PM 89.1 °F 90.3 °F 64.0 °F 43% 29.98 in 10.0 mi SW 8.1 mph - N/A   Clear
7:53 PM 88.0 °F 89.6 °F 64.9 °F 46% 29.98 in 10.0 mi SW 4.6 mph - N/A   Clear
8:53 PM 84.0 °F 86.5 °F 66.9 °F 56% 29.99 in 10.0 mi SSW 4.6 mph - N/A   Clear
9:53 PM 82.0 °F 84.9 °F 68.0 °F 62% 30.00 in 10.0 mi WSW 3.5 mph - N/A   Clear
10:53 PM 79.0 °F - 69.1 °F 72% 30.01 in 10.0 mi Calm Calm - N/A   Clear
11:53 PM 75.9 °F - 70.0 °F 82% 30.01 in 10.0 mi Calm Calm - N/A   Clear